Year,Month,Day,Hour,Minute,Value (Times are PST for temperature in C)
2018,08,12,00,00,12.10
2018,08,12,00,01,12.10
2018,08,12,00,02,12.00
2018,08,12,00,03,12.00
2018,08,12,00,04,12.00
2018,08,12,00,05,12.00
2018,08,12,00,06,12.00
2018,08,12,00,07,12.00
2018,08,12,00,08,11.90
2018,08,12,00,09,11.90
2018,08,12,00,10,11.90
2018,08,12,00,11,11.90
2018,08,12,00,12,11.90
2018,08,12,00,13,11.90
2018,08,12,00,14,11.90
2018,08,12,00,15,11.90
2018,08,12,00,16,11.90
2018,08,12,00,17,11.90
2018,08,12,00,18,11.90
2018,08,12,00,19,11.90
2018,08,12,00,20,11.90
2018,08,12,00,21,11.90
2018,08,12,00,22,11.90
2018,08,12,00,23,11.90
2018,08,12,00,24,11.90
2018,08,12,00,25,11.90
2018,08,12,00,26,11.90
2018,08,12,00,27,11.90
2018,08,12,00,28,11.90
2018,08,12,00,29,11.90
2018,08,12,00,30,11.90
2018,08,12,00,31,11.90
2018,08,12,00,32,11.90
2018,08,12,00,33,11.90
2018,08,12,00,34,11.90
2018,08,12,00,35,11.90
2018,08,12,00,36,11.90
2018,08,12,00,37,11.90
2018,08,12,00,38,11.90
2018,08,12,00,39,11.90
2018,08,12,00,40,11.90
2018,08,12,00,41,11.90
2018,08,12,00,42,11.90
2018,08,12,00,43,11.90
2018,08,12,00,44,11.90
2018,08,12,00,45,11.90
2018,08,12,00,46,11.90
2018,08,12,00,47,11.90
2018,08,12,00,48,11.90
2018,08,12,00,49,12.00
2018,08,12,00,50,11.90
2018,08,12,00,51,11.90
2018,08,12,00,52,11.90
2018,08,12,00,53,11.90
2018,08,12,00,54,11.90
2018,08,12,00,55,11.90
2018,08,12,00,56,11.90
2018,08,12,00,57,11.90
2018,08,12,00,58,11.90
2018,08,12,00,59,11.90
2018,08,12,01,00,11.90
2018,08,12,01,01,11.90
2018,08,12,01,02,11.90
2018,08,12,01,03,11.90
2018,08,12,01,04,11.90
2018,08,12,01,05,11.90
2018,08,12,01,06,11.80
2018,08,12,01,07,11.80
2018,08,12,01,08,11.80
2018,08,12,01,09,11.80
2018,08,12,01,10,11.80
2018,08,12,01,11,11.80
2018,08,12,01,12,11.80
2018,08,12,01,13,11.80
2018,08,12,01,14,11.80
2018,08,12,01,15,11.70
2018,08,12,01,16,11.70
2018,08,12,01,17,11.70
2018,08,12,01,18,11.70
2018,08,12,01,19,11.70
2018,08,12,01,20,11.70
2018,08,12,01,21,11.70
2018,08,12,01,22,11.60
2018,08,12,01,23,11.60
2018,08,12,01,24,11.60
2018,08,12,01,25,11.60
2018,08,12,01,26,11.60
2018,08,12,01,27,11.60
2018,08,12,01,28,11.60
2018,08,12,01,29,11.60
2018,08,12,01,30,11.60
2018,08,12,01,31,11.50
2018,08,12,01,32,11.50
2018,08,12,01,33,11.50
2018,08,12,01,34,11.40
2018,08,12,01,35,11.40
2018,08,12,01,36,11.40
2018,08,12,01,37,11.40
2018,08,12,01,38,11.40
2018,08,12,01,39,11.30
2018,08,12,01,40,11.30
2018,08,12,01,41,11.30
2018,08,12,01,42,11.30
2018,08,12,01,43,11.30
2018,08,12,01,44,11.20
2018,08,12,01,45,11.20
2018,08,12,01,46,11.20
2018,08,12,01,47,11.20
2018,08,12,01,48,11.20
2018,08,12,01,49,11.10
2018,08,12,01,50,11.10
2018,08,12,01,51,11.10
2018,08,12,01,52,11.10
2018,08,12,01,53,11.10
2018,08,12,01,54,11.10
2018,08,12,01,55,11.00
2018,08,12,01,56,11.00
2018,08,12,01,57,11.00
2018,08,12,01,58,11.00
2018,08,12,01,59,10.90
2018,08,12,02,00,10.90
2018,08,12,02,01,10.90
2018,08,12,02,02,10.90
2018,08,12,02,03,10.90
2018,08,12,02,04,10.90
2018,08,12,02,05,10.80
2018,08,12,02,06,10.80
2018,08,12,02,07,10.80
2018,08,12,02,08,10.80
2018,08,12,02,09,10.80
2018,08,12,02,10,10.70
2018,08,12,02,11,10.70
2018,08,12,02,12,10.70
2018,08,12,02,13,10.70
2018,08,12,02,14,10.70
2018,08,12,02,15,10.70
2018,08,12,02,16,10.60
2018,08,12,02,17,10.60
2018,08,12,02,18,10.60
2018,08,12,02,19,10.60
2018,08,12,02,20,10.50
2018,08,12,02,21,10.50
2018,08,12,02,22,10.50
2018,08,12,02,23,10.40
2018,08,12,02,24,10.40
2018,08,12,02,25,10.40
2018,08,12,02,26,10.40
2018,08,12,02,27,10.40
2018,08,12,02,28,10.30
2018,08,12,02,29,10.30
2018,08,12,02,30,10.30
2018,08,12,02,31,10.30
2018,08,12,02,32,10.30
2018,08,12,02,33,10.30
2018,08,12,02,34,10.30
2018,08,12,02,35,10.30
2018,08,12,02,36,10.20
2018,08,12,02,37,10.20
2018,08,12,02,38,10.20
2018,08,12,02,39,10.20
2018,08,12,02,40,10.20
2018,08,12,02,41,10.20
2018,08,12,02,42,10.10
2018,08,12,02,43,10.10
2018,08,12,02,44,10.10
2018,08,12,02,45,10.10
2018,08,12,02,46,10.10
2018,08,12,02,47,10.00
2018,08,12,02,48,10.00
2018,08,12,02,49,10.00
2018,08,12,02,50,9.90
2018,08,12,02,51,9.90
2018,08,12,02,52,9.90
2018,08,12,02,53,9.90
2018,08,12,02,54,9.90
2018,08,12,02,55,9.90
2018,08,12,02,56,9.80
2018,08,12,02,57,9.80
2018,08,12,02,58,9.80
2018,08,12,02,59,9.80
2018,08,12,03,00,9.80
2018,08,12,03,01,9.80
2018,08,12,03,02,9.80
2018,08,12,03,03,9.70
2018,08,12,03,04,9.70
2018,08,12,03,05,9.70
2018,08,12,03,06,9.70
2018,08,12,03,07,9.60
2018,08,12,03,08,9.60
2018,08,12,03,09,9.60
2018,08,12,03,10,9.60
2018,08,12,03,11,9.50
2018,08,12,03,12,9.50
2018,08,12,03,13,9.50
2018,08,12,03,14,9.50
2018,08,12,03,15,9.40
2018,08,12,03,16,9.40
2018,08,12,03,17,9.40
2018,08,12,03,18,9.40
2018,08,12,03,19,9.30
2018,08,12,03,20,9.30
2018,08,12,03,21,9.30
2018,08,12,03,22,9.30
2018,08,12,03,23,9.30
2018,08,12,03,24,9.30
2018,08,12,03,25,9.20
2018,08,12,03,26,9.20
2018,08,12,03,27,9.20
2018,08,12,03,28,9.20
2018,08,12,03,29,9.20
2018,08,12,03,30,9.20
2018,08,12,03,31,9.10
2018,08,12,03,32,9.10
2018,08,12,03,33,9.10
2018,08,12,03,34,9.20
2018,08,12,03,35,9.10
2018,08,12,03,36,9.20
2018,08,12,03,37,9.20
2018,08,12,03,38,9.20
2018,08,12,03,39,9.20
2018,08,12,03,40,9.20
2018,08,12,03,41,9.20
2018,08,12,03,42,9.20
2018,08,12,03,43,9.20
2018,08,12,03,44,9.10
2018,08,12,03,45,9.10
2018,08,12,03,46,9.10
2018,08,12,03,47,9.00
2018,08,12,03,48,9.00
2018,08,12,03,49,9.00
2018,08,12,03,50,8.90
2018,08,12,03,51,8.90
2018,08,12,03,52,8.80
2018,08,12,03,53,8.80
2018,08,12,03,54,8.80
2018,08,12,03,55,8.80
2018,08,12,03,56,8.80
2018,08,12,03,57,8.70
2018,08,12,03,58,8.70
2018,08,12,03,59,8.70
2018,08,12,04,00,8.70
2018,08,12,04,01,8.70
2018,08,12,04,02,8.70
2018,08,12,04,03,8.70
2018,08,12,04,04,8.70
2018,08,12,04,05,8.70
2018,08,12,04,06,8.70
2018,08,12,04,07,8.70
2018,08,12,04,08,8.70
2018,08,12,04,09,8.60
2018,08,12,04,10,8.60
2018,08,12,04,11,8.60
2018,08,12,04,12,8.60
2018,08,12,04,13,8.60
2018,08,12,04,14,8.60
2018,08,12,04,15,8.50
2018,08,12,04,16,8.50
2018,08,12,04,17,8.50
2018,08,12,04,18,8.50
2018,08,12,04,19,8.50
2018,08,12,04,20,8.50
2018,08,12,04,21,8.50
2018,08,12,04,22,8.50
2018,08,12,04,23,8.60
2018,08,12,04,24,8.60
2018,08,12,04,25,8.60
2018,08,12,04,26,8.60
2018,08,12,04,27,8.60
2018,08,12,04,28,8.60
2018,08,12,04,29,8.60
2018,08,12,04,30,8.60
2018,08,12,04,31,8.60
2018,08,12,04,32,8.60
2018,08,12,04,33,8.50
2018,08,12,04,34,8.50
2018,08,12,04,35,8.50
2018,08,12,04,36,8.50
2018,08,12,04,37,8.50
2018,08,12,04,38,8.40
2018,08,12,04,39,8.40
2018,08,12,04,40,8.40
2018,08,12,04,41,8.40
2018,08,12,04,42,8.40
2018,08,12,04,43,8.40
2018,08,12,04,44,8.40
2018,08,12,04,45,8.40
2018,08,12,04,46,8.30
2018,08,12,04,47,8.30
2018,08,12,04,48,8.30
2018,08,12,04,49,8.30
2018,08,12,04,50,8.30
2018,08,12,04,51,8.20
2018,08,12,04,52,8.20
2018,08,12,04,53,8.20
2018,08,12,04,54,8.20
2018,08,12,04,55,8.10
2018,08,12,04,56,8.10
2018,08,12,04,57,8.10
2018,08,12,04,58,8.10
2018,08,12,04,59,8.10
2018,08,12,05,00,8.00
2018,08,12,05,01,8.00
2018,08,12,05,02,8.00
2018,08,12,05,03,8.00
2018,08,12,05,04,7.90
2018,08,12,05,05,7.90
2018,08,12,05,06,7.90
2018,08,12,05,07,7.90
2018,08,12,05,08,7.80
2018,08,12,05,09,7.80
2018,08,12,05,10,7.80
2018,08,12,05,11,7.80
2018,08,12,05,12,7.80
2018,08,12,05,13,7.80
2018,08,12,05,14,7.70
2018,08,12,05,15,7.70
2018,08,12,05,16,7.70
2018,08,12,05,17,7.70
2018,08,12,05,18,7.70
2018,08,12,05,19,7.70
2018,08,12,05,20,7.70
2018,08,12,05,21,7.70
2018,08,12,05,22,7.70
2018,08,12,05,23,7.70
2018,08,12,05,24,7.70
2018,08,12,05,25,7.70
2018,08,12,05,26,7.70
2018,08,12,05,27,7.70
2018,08,12,05,28,7.70
2018,08,12,05,29,7.70
2018,08,12,05,30,7.70
2018,08,12,05,31,7.70
2018,08,12,05,32,7.70
2018,08,12,05,33,7.70
2018,08,12,05,34,7.70
2018,08,12,05,35,7.70
2018,08,12,05,36,7.70
2018,08,12,05,37,7.60
2018,08,12,05,38,7.60
2018,08,12,05,39,7.70
2018,08,12,05,40,7.60
2018,08,12,05,41,7.60
2018,08,12,05,42,7.60
2018,08,12,05,43,7.60
2018,08,12,05,44,7.60
2018,08,12,05,45,7.60
2018,08,12,05,46,7.60
2018,08,12,05,47,7.60
2018,08,12,05,48,7.70
2018,08,12,05,49,7.70
2018,08,12,05,50,7.70
2018,08,12,05,51,7.70
2018,08,12,05,52,7.70
2018,08,12,05,53,7.70
2018,08,12,05,54,7.70
2018,08,12,05,55,7.70
2018,08,12,05,56,7.70
2018,08,12,05,57,7.70
2018,08,12,05,58,7.70
2018,08,12,05,59,7.70
2018,08,12,06,00,7.70
2018,08,12,06,01,7.70
2018,08,12,06,02,7.70
2018,08,12,06,03,7.80
2018,08,12,06,04,7.80
2018,08,12,06,05,7.80
2018,08,12,06,06,7.80
2018,08,12,06,07,7.80
2018,08,12,06,08,7.80
2018,08,12,06,09,7.70
2018,08,12,06,10,7.70
2018,08,12,06,11,7.80
2018,08,12,06,12,7.80
2018,08,12,06,13,7.80
2018,08,12,06,14,7.80
2018,08,12,06,15,7.80
2018,08,12,06,16,7.80
2018,08,12,06,17,7.80
2018,08,12,06,18,7.80
2018,08,12,06,19,7.80
2018,08,12,06,20,7.80
2018,08,12,06,21,7.80
2018,08,12,06,22,7.80
2018,08,12,06,23,7.80
2018,08,12,06,24,7.80
2018,08,12,06,25,7.80
2018,08,12,06,26,7.80
2018,08,12,06,27,7.80
2018,08,12,06,28,7.80
2018,08,12,06,29,7.80
2018,08,12,06,30,7.80
2018,08,12,06,31,7.80
2018,08,12,06,32,7.80
2018,08,12,06,33,7.80
2018,08,12,06,34,7.80
2018,08,12,06,35,7.80
2018,08,12,06,36,7.80
2018,08,12,06,37,7.80
2018,08,12,06,38,7.80
2018,08,12,06,39,7.80
2018,08,12,06,40,7.80
2018,08,12,06,41,7.80
2018,08,12,06,42,7.80
2018,08,12,06,43,7.80
2018,08,12,06,44,7.80
2018,08,12,06,45,7.80
2018,08,12,06,46,7.80
2018,08,12,06,47,7.80
2018,08,12,06,48,7.80
2018,08,12,06,49,7.80
2018,08,12,06,50,7.80
2018,08,12,06,51,7.80
2018,08,12,06,52,7.90
2018,08,12,06,53,7.90
2018,08,12,06,54,7.90
2018,08,12,06,55,8.00
2018,08,12,06,56,8.00
2018,08,12,06,57,8.00
2018,08,12,06,58,8.00
2018,08,12,06,59,8.00
2018,08,12,07,00,8.00
2018,08,12,07,01,8.00
2018,08,12,07,02,8.00
2018,08,12,07,03,8.00
2018,08,12,07,04,8.00
2018,08,12,07,05,8.00
2018,08,12,07,06,8.00
2018,08,12,07,07,8.10
2018,08,12,07,08,8.10
2018,08,12,07,09,8.10
2018,08,12,07,10,8.10
2018,08,12,07,11,8.10
2018,08,12,07,12,8.10
2018,08,12,07,13,8.10
2018,08,12,07,14,8.10
2018,08,12,07,15,8.20
2018,08,12,07,16,8.20
2018,08,12,07,17,8.20
2018,08,12,07,18,8.20
2018,08,12,07,19,8.20
2018,08,12,07,20,8.20
2018,08,12,07,21,8.20
2018,08,12,07,22,8.20
2018,08,12,07,23,8.20
2018,08,12,07,24,8.20
2018,08,12,07,25,8.30
2018,08,12,07,26,8.30
2018,08,12,07,27,8.30
2018,08,12,07,28,8.30
2018,08,12,07,29,8.30
2018,08,12,07,30,8.30
2018,08,12,07,31,8.30
2018,08,12,07,32,8.30
2018,08,12,07,33,8.30
2018,08,12,07,34,8.30
2018,08,12,07,35,8.40
2018,08,12,07,36,8.40
2018,08,12,07,37,8.40
2018,08,12,07,38,8.40
2018,08,12,07,39,8.40
2018,08,12,07,40,8.40
2018,08,12,07,41,8.40
2018,08,12,07,42,8.40
2018,08,12,07,43,8.40
2018,08,12,07,44,8.40
2018,08,12,07,45,8.40
2018,08,12,07,46,8.40
2018,08,12,07,47,8.40
2018,08,12,07,48,8.40
2018,08,12,07,49,8.40
2018,08,12,07,50,8.40
2018,08,12,07,51,8.50
2018,08,12,07,52,8.50
2018,08,12,07,53,8.50
2018,08,12,07,54,8.50
2018,08,12,07,55,8.50
2018,08,12,07,56,8.50
2018,08,12,07,57,8.50
2018,08,12,07,58,8.50
2018,08,12,07,59,8.60
2018,08,12,08,00,8.60
2018,08,12,08,01,8.60
2018,08,12,08,02,8.60
2018,08,12,08,03,8.60
2018,08,12,08,04,8.60
2018,08,12,08,05,8.60
2018,08,12,08,06,8.60
2018,08,12,08,07,8.70
2018,08,12,08,08,8.70
2018,08,12,08,09,8.70
2018,08,12,08,10,8.70
2018,08,12,08,11,8.80
2018,08,12,08,12,8.80
2018,08,12,08,13,8.80
2018,08,12,08,14,8.80
2018,08,12,08,15,8.80
2018,08,12,08,16,8.80
2018,08,12,08,17,8.80
2018,08,12,08,18,8.80
2018,08,12,08,19,8.80
2018,08,12,08,20,8.80
2018,08,12,08,21,8.80
2018,08,12,08,22,8.80
2018,08,12,08,23,8.90
2018,08,12,08,24,8.90
2018,08,12,08,25,8.90
2018,08,12,08,26,8.90
2018,08,12,08,27,9.00
2018,08,12,08,28,9.00
2018,08,12,08,29,9.10
2018,08,12,08,30,9.10
2018,08,12,08,31,9.10
2018,08,12,08,32,9.10
2018,08,12,08,33,9.20
2018,08,12,08,34,9.20
2018,08,12,08,35,9.30
2018,08,12,08,36,9.30
2018,08,12,08,37,9.30
2018,08,12,08,38,9.30
2018,08,12,08,39,9.40
2018,08,12,08,40,9.40
2018,08,12,08,41,9.40
2018,08,12,08,42,9.40
2018,08,12,08,43,9.40
2018,08,12,08,44,9.50
2018,08,12,08,45,9.50
2018,08,12,08,46,9.50
2018,08,12,08,47,9.50
2018,08,12,08,48,9.60
2018,08,12,08,49,9.60
2018,08,12,08,50,9.60
2018,08,12,08,51,9.60
2018,08,12,08,52,9.60
2018,08,12,08,53,9.60
2018,08,12,08,54,9.70
2018,08,12,08,55,9.70
2018,08,12,08,56,9.70
2018,08,12,08,57,9.70
2018,08,12,08,58,9.70
2018,08,12,08,59,9.70
2018,08,12,09,00,9.70
2018,08,12,09,01,9.80
2018,08,12,09,02,9.80
2018,08,12,09,03,9.80
2018,08,12,09,04,9.80
2018,08,12,09,05,9.80
2018,08,12,09,06,9.80
2018,08,12,09,07,9.80
2018,08,12,09,08,9.80
2018,08,12,09,09,9.80
2018,08,12,09,10,9.80
2018,08,12,09,11,9.80
2018,08,12,09,12,9.80
2018,08,12,09,13,9.90
2018,08,12,09,14,9.90
2018,08,12,09,15,9.90
2018,08,12,09,16,9.90
2018,08,12,09,17,9.90
2018,08,12,09,18,9.90
2018,08,12,09,19,10.00
2018,08,12,09,20,10.00
2018,08,12,09,21,10.00
2018,08,12,09,22,10.00
2018,08,12,09,23,10.10
2018,08,12,09,24,10.10
2018,08,12,09,25,10.10
2018,08,12,09,26,10.10
2018,08,12,09,27,10.10
2018,08,12,09,28,10.10
2018,08,12,09,29,10.10
2018,08,12,09,30,10.10
2018,08,12,09,31,10.10
2018,08,12,09,32,10.10
2018,08,12,09,33,10.10
2018,08,12,09,34,10.20
2018,08,12,09,35,10.20
2018,08,12,09,36,10.20
2018,08,12,09,37,10.20
2018,08,12,09,38,10.20
2018,08,12,09,39,10.20
2018,08,12,09,40,10.20
2018,08,12,09,41,10.20
2018,08,12,09,42,10.20
2018,08,12,09,43,10.20
2018,08,12,09,44,10.20
2018,08,12,09,45,10.30
2018,08,12,09,46,10.30
2018,08,12,09,47,10.30
2018,08,12,09,48,10.30
2018,08,12,09,49,10.30
2018,08,12,09,50,10.30
2018,08,12,09,51,10.30
2018,08,12,09,52,10.30
2018,08,12,09,53,10.30
2018,08,12,09,54,10.30
2018,08,12,09,55,10.30
2018,08,12,09,56,10.40
2018,08,12,09,57,10.40
2018,08,12,09,58,10.40
2018,08,12,09,59,10.40
2018,08,12,10,00,10.40
2018,08,12,10,01,10.40
2018,08,12,10,02,10.40
2018,08,12,10,03,10.40
2018,08,12,10,04,10.40
2018,08,12,10,05,10.40
2018,08,12,10,06,10.50
2018,08,12,10,07,10.50
2018,08,12,10,08,10.50
2018,08,12,10,09,10.50
2018,08,12,10,10,10.60
2018,08,12,10,11,10.60
2018,08,12,10,12,10.60
2018,08,12,10,13,10.60
2018,08,12,10,14,10.70
2018,08,12,10,15,10.70
2018,08,12,10,16,10.80
2018,08,12,10,17,10.80
2018,08,12,10,18,10.80
2018,08,12,10,19,10.90
2018,08,12,10,20,11.00
2018,08,12,10,21,11.00
2018,08,12,10,22,11.10
2018,08,12,10,23,11.10
2018,08,12,10,24,11.10
2018,08,12,10,25,11.20
2018,08,12,10,26,11.20
2018,08,12,10,27,11.30
2018,08,12,10,28,11.30
2018,08,12,10,29,11.30
2018,08,12,10,30,11.30
2018,08,12,10,31,11.40
2018,08,12,10,32,11.40
2018,08,12,10,33,11.50
2018,08,12,10,34,11.50
2018,08,12,10,35,11.60
2018,08,12,10,36,11.60
2018,08,12,10,37,11.60
2018,08,12,10,38,11.60
2018,08,12,10,39,11.60
2018,08,12,10,40,11.60
2018,08,12,10,41,11.60
2018,08,12,10,42,11.60
2018,08,12,10,43,11.60
2018,08,12,10,44,11.60
2018,08,12,10,45,11.60
2018,08,12,10,46,11.70
2018,08,12,10,47,11.70
2018,08,12,10,48,11.70
2018,08,12,10,49,11.70
2018,08,12,10,50,11.80
2018,08,12,10,51,11.80
2018,08,12,10,52,11.80
2018,08,12,10,53,11.80
2018,08,12,10,54,11.90
2018,08,12,10,55,11.90
2018,08,12,10,56,11.90
2018,08,12,10,57,12.00
2018,08,12,10,58,12.00
2018,08,12,10,59,12.10
2018,08,12,11,00,12.10
2018,08,12,11,01,12.10
2018,08,12,11,02,12.20
2018,08,12,11,03,12.20
2018,08,12,11,04,12.20
2018,08,12,11,05,12.20
2018,08,12,11,06,12.30
2018,08,12,11,07,12.30
2018,08,12,11,08,12.30
2018,08,12,11,09,12.30
2018,08,12,11,10,12.40
2018,08,12,11,11,12.40
2018,08,12,11,12,12.40
2018,08,12,11,13,12.50
2018,08,12,11,14,12.50
2018,08,12,11,15,12.60
2018,08,12,11,16,12.60
2018,08,12,11,17,12.70
2018,08,12,11,18,12.70
2018,08,12,11,19,12.80
2018,08,12,11,20,12.80
2018,08,12,11,21,12.90
2018,08,12,11,22,12.90
2018,08,12,11,23,13.00
2018,08,12,11,24,13.00
2018,08,12,11,25,13.10
2018,08,12,11,26,13.10
2018,08,12,11,27,13.20
2018,08,12,11,28,13.20
2018,08,12,11,29,13.30
2018,08,12,11,30,13.30
2018,08,12,11,31,13.30
2018,08,12,11,32,13.40
2018,08,12,11,33,13.40
2018,08,12,11,34,13.50
2018,08,12,11,35,13.60
2018,08,12,11,36,13.60
2018,08,12,11,37,13.70
2018,08,12,11,38,13.70
2018,08,12,11,39,13.70
2018,08,12,11,40,13.80
2018,08,12,11,41,13.80
2018,08,12,11,42,13.80
2018,08,12,11,43,13.80
2018,08,12,11,44,13.80
2018,08,12,11,45,13.80
2018,08,12,11,46,13.80
2018,08,12,11,47,13.80
2018,08,12,11,48,13.80
2018,08,12,11,49,13.80
2018,08,12,11,50,13.90
2018,08,12,11,51,13.80
2018,08,12,11,52,13.80
2018,08,12,11,53,13.90
2018,08,12,11,54,13.90
2018,08,12,11,55,13.90
2018,08,12,11,56,13.90
2018,08,12,11,57,13.90
2018,08,12,11,58,13.90
2018,08,12,11,59,14.00
2018,08,12,12,00,14.00
2018,08,12,12,01,14.00
2018,08,12,12,02,14.10
2018,08,12,12,03,14.10
2018,08,12,12,04,14.10
2018,08,12,12,05,14.10
2018,08,12,12,06,14.10
2018,08,12,12,07,14.10
2018,08,12,12,08,14.20
2018,08,12,12,09,14.20
2018,08,12,12,10,14.20
2018,08,12,12,11,14.20
2018,08,12,12,12,14.20
2018,08,12,12,13,14.20
2018,08,12,12,14,14.20
2018,08,12,12,15,14.20
2018,08,12,12,16,14.20
2018,08,12,12,17,14.20
2018,08,12,12,18,14.20
2018,08,12,12,19,14.20
2018,08,12,12,20,14.20
2018,08,12,12,21,14.20
2018,08,12,12,22,14.20
2018,08,12,12,23,14.20
2018,08,12,12,24,14.20
2018,08,12,12,25,14.20
2018,08,12,12,26,14.30
2018,08,12,12,27,14.30
2018,08,12,12,28,14.30
2018,08,12,12,29,14.30
2018,08,12,12,30,14.30
2018,08,12,12,31,14.30
2018,08,12,12,32,14.30
2018,08,12,12,33,14.30
2018,08,12,12,34,14.30
2018,08,12,12,35,14.40
2018,08,12,12,36,14.30
2018,08,12,12,37,14.30
2018,08,12,12,38,14.30
2018,08,12,12,39,14.30
2018,08,12,12,40,14.30
2018,08,12,12,41,14.30
2018,08,12,12,42,14.30
2018,08,12,12,43,14.40
2018,08,12,12,44,14.40
2018,08,12,12,45,14.40
2018,08,12,12,46,14.40
2018,08,12,12,47,14.40
2018,08,12,12,48,14.30
2018,08,12,12,49,14.30
2018,08,12,12,50,14.30
2018,08,12,12,51,14.30
2018,08,12,12,52,14.30
2018,08,12,12,53,14.30
2018,08,12,12,54,14.30
2018,08,12,12,55,14.30
2018,08,12,12,56,14.30
2018,08,12,12,57,14.30
2018,08,12,12,58,14.30
2018,08,12,12,59,14.20
2018,08,12,13,00,14.20
2018,08,12,13,01,14.20
2018,08,12,13,02,14.20
2018,08,12,13,03,14.20
2018,08,12,13,04,14.20
2018,08,12,13,05,14.10
2018,08,12,13,06,14.10
2018,08,12,13,07,14.10
2018,08,12,13,08,14.10
2018,08,12,13,09,14.10
2018,08,12,13,10,14.10
2018,08,12,13,11,14.00
2018,08,12,13,12,14.00
2018,08,12,13,13,14.00
2018,08,12,13,14,14.00
2018,08,12,13,15,14.00
2018,08,12,13,16,14.00
2018,08,12,13,17,13.90
2018,08,12,13,18,13.90
2018,08,12,13,19,13.90
2018,08,12,13,20,13.90
2018,08,12,13,21,13.90
2018,08,12,13,22,13.90
2018,08,12,13,23,13.90
2018,08,12,13,24,13.90
2018,08,12,13,25,13.90
2018,08,12,13,26,13.90
2018,08,12,13,27,13.90
2018,08,12,13,28,13.90
2018,08,12,13,29,13.90
2018,08,12,13,30,14.00
2018,08,12,13,31,14.00
2018,08,12,13,32,14.00
2018,08,12,13,33,14.00
2018,08,12,13,34,14.00
2018,08,12,13,35,14.00
2018,08,12,13,36,14.00
2018,08,12,13,37,14.00
2018,08,12,13,38,14.00
2018,08,12,13,39,14.10
2018,08,12,13,40,14.10
2018,08,12,13,41,14.10
2018,08,12,13,42,14.00
2018,08,12,13,43,14.00
2018,08,12,13,44,14.00
2018,08,12,13,45,14.00
2018,08,12,13,46,14.00
2018,08,12,13,47,14.00
2018,08,12,13,48,14.10
2018,08,12,13,49,14.10
2018,08,12,13,50,14.10
2018,08,12,13,51,14.10
2018,08,12,13,52,14.10
2018,08,12,13,53,14.10
2018,08,12,13,54,14.10
2018,08,12,13,55,14.10
2018,08,12,13,56,14.10
2018,08,12,13,57,14.10
2018,08,12,13,58,14.10
2018,08,12,13,59,14.10
2018,08,12,14,00,14.20
2018,08,12,14,01,14.20
2018,08,12,14,02,14.20
2018,08,12,14,03,14.20
2018,08,12,14,04,14.20
2018,08,12,14,05,14.20
2018,08,12,14,06,14.20
2018,08,12,14,07,14.20
2018,08,12,14,08,14.20
2018,08,12,14,09,14.20
2018,08,12,14,10,14.20
2018,08,12,14,11,14.20
2018,08,12,14,12,14.30
2018,08,12,14,13,14.30
2018,08,12,14,14,14.30
2018,08,12,14,15,14.30
2018,08,12,14,16,14.30
2018,08,12,14,17,14.30
2018,08,12,14,18,14.30
2018,08,12,14,19,14.30
2018,08,12,14,20,14.30
2018,08,12,14,21,14.30
2018,08,12,14,22,14.30
2018,08,12,14,23,14.30
2018,08,12,14,24,14.30
2018,08,12,14,25,14.40
2018,08,12,14,26,14.40
2018,08,12,14,27,14.40
2018,08,12,14,28,14.40
2018,08,12,14,29,14.40
2018,08,12,14,30,14.50
2018,08,12,14,31,14.50
2018,08,12,14,32,14.50
2018,08,12,14,33,14.60
2018,08,12,14,34,14.60
2018,08,12,14,35,14.60
2018,08,12,14,36,14.70
2018,08,12,14,37,14.70
2018,08,12,14,38,14.80
2018,08,12,14,39,14.80
2018,08,12,14,40,14.80
2018,08,12,14,41,14.80
2018,08,12,14,42,14.80
2018,08,12,14,43,14.80
2018,08,12,14,44,14.80
2018,08,12,14,45,14.90
2018,08,12,14,46,14.90
2018,08,12,14,47,14.90
2018,08,12,14,48,14.90
2018,08,12,14,49,14.90
2018,08,12,14,50,14.90
2018,08,12,14,51,15.00
2018,08,12,14,52,15.00
2018,08,12,14,53,15.00
2018,08,12,14,54,15.10
2018,08,12,14,55,15.10
2018,08,12,14,56,15.10
2018,08,12,14,57,15.10
2018,08,12,14,58,15.20
2018,08,12,14,59,15.20
2018,08,12,15,00,15.20
2018,08,12,15,01,15.20
2018,08,12,15,02,15.20
2018,08,12,15,03,15.20
2018,08,12,15,04,15.20
2018,08,12,15,05,15.30
2018,08,12,15,06,15.30
2018,08,12,15,07,15.30
2018,08,12,15,08,15.30
2018,08,12,15,09,15.30
2018,08,12,15,10,15.30
2018,08,12,15,11,15.30
2018,08,12,15,12,15.30
2018,08,12,15,13,15.30
2018,08,12,15,14,15.30
2018,08,12,15,15,15.30
2018,08,12,15,16,15.30
2018,08,12,15,17,15.40
2018,08,12,15,18,15.40
2018,08,12,15,19,15.40
2018,08,12,15,20,15.40
2018,08,12,15,21,15.40
2018,08,12,15,22,15.40
2018,08,12,15,23,15.40
2018,08,12,15,24,15.40
2018,08,12,15,25,15.40
2018,08,12,15,26,15.40
2018,08,12,15,27,15.40
2018,08,12,15,28,15.40
2018,08,12,15,29,15.40
2018,08,12,15,30,15.40
2018,08,12,15,31,15.40
2018,08,12,15,32,15.40
2018,08,12,15,33,15.40
2018,08,12,15,34,15.40
2018,08,12,15,35,15.40
2018,08,12,15,36,15.40
2018,08,12,15,37,15.40
2018,08,12,15,38,15.40
2018,08,12,15,39,15.40
2018,08,12,15,40,15.40
2018,08,12,15,41,15.40
2018,08,12,15,42,15.40
2018,08,12,15,43,15.40
2018,08,12,15,44,15.40
2018,08,12,15,45,15.40
2018,08,12,15,46,15.40
2018,08,12,15,47,15.40
2018,08,12,15,48,15.40
2018,08,12,15,49,15.40
2018,08,12,15,50,15.40
2018,08,12,15,51,15.40
2018,08,12,15,52,15.40
2018,08,12,15,53,15.40
2018,08,12,15,54,15.40
2018,08,12,15,55,15.40
2018,08,12,15,56,15.40
2018,08,12,15,57,15.50
2018,08,12,15,58,15.50
2018,08,12,15,59,15.50
2018,08,12,16,00,15.50
2018,08,12,16,01,15.50
2018,08,12,16,02,15.50
2018,08,12,16,03,15.50
2018,08,12,16,04,15.50
2018,08,12,16,05,15.50
2018,08,12,16,06,15.50
2018,08,12,16,07,15.50
2018,08,12,16,08,15.50
2018,08,12,16,09,15.50
2018,08,12,16,10,15.50
2018,08,12,16,11,15.50
2018,08,12,16,12,15.50
2018,08,12,16,13,15.60
2018,08,12,16,14,15.60
2018,08,12,16,15,15.60
2018,08,12,16,16,15.60
2018,08,12,16,17,15.60
2018,08,12,16,18,15.60
2018,08,12,16,19,15.60
2018,08,12,16,20,15.70
2018,08,12,16,21,15.70
2018,08,12,16,22,15.70
2018,08,12,16,23,15.70
2018,08,12,16,24,15.70
2018,08,12,16,25,15.70
2018,08,12,16,26,15.70
2018,08,12,16,27,15.70
2018,08,12,16,28,15.70
2018,08,12,16,29,15.70
2018,08,12,16,30,15.80
2018,08,12,16,31,15.80
2018,08,12,16,32,15.80
2018,08,12,16,33,15.80
2018,08,12,16,34,15.80
2018,08,12,16,35,15.80
2018,08,12,16,36,15.90
2018,08,12,16,37,15.90
2018,08,12,16,38,15.90
2018,08,12,16,39,15.90
2018,08,12,16,40,15.90
2018,08,12,16,41,16.00
2018,08,12,16,42,16.00
2018,08,12,16,43,16.00
2018,08,12,16,44,16.00
2018,08,12,16,45,16.10
2018,08,12,16,46,16.10
2018,08,12,16,47,16.10
2018,08,12,16,48,16.10
2018,08,12,16,49,16.10
2018,08,12,16,50,16.10
2018,08,12,16,51,16.10
2018,08,12,16,52,16.10
2018,08,12,16,53,16.10
2018,08,12,16,54,16.10
2018,08,12,16,55,16.10
2018,08,12,16,56,16.10
2018,08,12,16,57,16.20
2018,08,12,16,58,16.20
2018,08,12,16,59,16.20
2018,08,12,17,00,16.20
2018,08,12,17,01,16.20
2018,08,12,17,02,16.20
2018,08,12,17,03,16.30
2018,08,12,17,04,16.30
2018,08,12,17,05,16.30
2018,08,12,17,06,16.30
2018,08,12,17,07,16.30
2018,08,12,17,08,16.30
2018,08,12,17,09,16.40
2018,08,12,17,10,16.40
2018,08,12,17,11,16.40
2018,08,12,17,12,16.40
2018,08,12,17,13,16.40
2018,08,12,17,14,16.50
2018,08,12,17,15,16.50
2018,08,12,17,16,16.50
2018,08,12,17,17,16.60
2018,08,12,17,18,16.60
2018,08,12,17,19,16.60
2018,08,12,17,20,16.60
2018,08,12,17,21,16.60
2018,08,12,17,22,16.60
2018,08,12,17,23,16.60
2018,08,12,17,24,16.60
2018,08,12,17,25,16.60
2018,08,12,17,26,16.60
2018,08,12,17,27,16.60
2018,08,12,17,28,16.60
2018,08,12,17,29,16.70
2018,08,12,17,30,16.70
2018,08,12,17,31,16.70
2018,08,12,17,32,16.70
2018,08,12,17,33,16.70
2018,08,12,17,34,16.70
2018,08,12,17,35,16.70
2018,08,12,17,36,16.80